[[{"header":{"parameterUnit":"m.s-1","parameterCategory":1,"la1":30.2991,"la2":30.254,"lo1":-89.0895,"lo2":-89.0444,"dy":0.0017,"dx":0.0017,"nx":28,"ny":28,"refTime":"2025-07-04T09:00:00:Z","depth":0,"parameterNumber":2,"parameterNumberName":"U-component_of_WINDS"},"data":[0,0,0,0,0,0,0,0,0,0,0,0,0,0,0,0,0,0,0,0,0,0,0,0,0,0,0,0,0,0,0,0,0,0,0,0,0,0,0,0,0,0,0,0,0,0,0,0,0,0,0,0,0,0,0,0,0,0,0.957,0.957,0,0.959,0.959,0.9591,0.9604,0.9604,0.9605,0.9605,0.9625,0.9625,0.9626,0,0,0,0,0,0,0,0,0,0,0,0,0,0.9543,0.9543,0.957,0.957,0.9571,0.959,0.959,0.9591,0.9604,0.9604,0.9605,0.9605,0.9625,0.9625,0.9626,0,0,0,0,0,0,0,0,0,0,0,0,0,0.9558,0.9543,0.957,0.958,0.9581,0.959,0.959,0.9591,0.9604,0.9604,0.9605,0.9605,0.9625,0.9625,0.9626,0.9627,0,0,0.9628,0.9628,0,0,0,0,0,0,0,0,0.9557,0.9559,0.9578,0.9579,0.958,0.9595,0.9588,0.9603,0.9604,0.9595,0.9605,0.9605,0.9615,0.9616,0.962,0.9628,0.9629,0.9628,0.9628,0.9629,0.9629,0,0,0,0,0,0,0,0.9556,0.9558,0.9578,0.9578,0.958,0.9583,0.9585,0.9591,0.9604,0.9596,0.9597,0.9599,0.9615,0.9619,0.962,0.9629,0.9628,0.9629,0.9629,0.9629,0.9639,0.9639,0,0,0,0,0,0,0.9553,0.9557,0.9577,0.9579,0.9569,0.9583,0.9586,0.959,0.9604,0.9606,0.9599,0.96,0.9618,0.9619,0.9621,0.9623,0.9629,0.9629,0.963,0.9639,0.9639,0.9639,0,0,0,0,0,0,0.9553,0.9555,0.9577,0.9568,0.9571,0.9584,0.9588,0.959,0.9594,0.9606,0.9609,0.9601,0.9618,0.962,0.9625,0.9624,0.963,0.963,0.9639,0.9639,0.9639,0.9627,0,0,0,0,0,0,0.9552,0.9555,0.9555,0.9568,0.9572,0.9581,0.9588,0.9591,0.9595,0.9596,0.9608,0.961,0.9618,0.9624,0.9626,0.9625,0.9631,0.9639,0.9639,0.9639,0.9627,0.9626,0.9625,0,0,0,0,0,0.9551,0.9551,0.9555,0.9558,0.9573,0.958,0.9582,0.9592,0.9595,0.9596,0.9603,0.961,0.9624,0.9625,0.9627,0.9626,0.9639,0.9639,0.9639,0.9628,0.9626,0.9625,0,0,0,0,0,0,0.9538,0.9553,0.9558,0.9562,0.957,0.9583,0.9584,0.959,0.9597,0.9597,0.9609,0.9611,0.9615,0.9621,0.9622,0.9627,0.9632,0.9632,0.9623,0.9622,0.9621,0.9619,0.9631,0,0,0,0,0,0.9535,0.9541,0.9554,0.9556,0.956,0.9571,0.9575,0.9581,0.959,0.9593,0.9601,0.9609,0.9615,0.9619,0.9625,0.9628,0.9631,0.9629,0.9627,0.9626,0.9626,0.9628,0.9627,0.9638,0.9638,0.9638,0,0,0.953,0.9539,0.9542,0.9554,0.9561,0.9566,0.9574,0.9579,0.9582,0.9594,0.9599,0.9606,0.9615,0.9619,0.9621,0.9624,0.9624,0.9626,0.9625,0.9625,0.9627,0.9626,0.9625,0.9637,0.9637,0.9637,0,0,0.9524,0.9531,0.9534,0.9541,0.9551,0.9559,0.9559,0.9571,0.9576,0.9582,0.959,0.9595,0.9605,0.9611,0.9616,0.9612,0.9618,0.9613,0.9607,0.9609,0.9608,0.9607,0.9605,0.9604,0.9613,0.9613,0.9613,0,0.9516,0.9524,0.9535,0.9539,0.9544,0.9555,0.9558,0.9564,0.9575,0.9578,0.9581,0.9594,0.9601,0.9607,0.9606,0.9609,0.961,0.9612,0.9607,0.9607,0.9606,0.9604,0.9604,0.9613,0.9613,0.9613,0.9613,0,0.9514,0.952,0.9521,0.9532,0.9537,0.954,0.9551,0.9555,0.9561,0.9568,0.9574,0.9583,0.9591,0.9593,0.9599,0.9599,0.96,0.9605,0.961,0.9604,0.9603,0.9602,0.9612,0.9612,0.9612,0.9612,0,0,0.9499,0.9517,0.9517,0.9522,0.9534,0.9538,0.9542,0.955,0.9553,0.9561,0.9564,0.9573,0.9577,0.9582,0.9589,0.9591,0.9586,0.9596,0.9596,0.9593,0.9586,0.9582,0.9581,0.9591,0.959,0.959,0.9585,0,0.9494,0.9502,0.9512,0.9516,0.9521,0.9532,0.9535,0.9543,0.955,0.9555,0.9562,0.9568,0.9574,0.9577,0.9579,0.9586,0.9585,0.9587,0.9593,0.9593,0.959,0.958,0.9576,0.957,0.9585,0.9585,0.9585,0,0.9489,0.9496,0.9501,0.9513,0.9516,0.9518,0.9527,0.9531,0.954,0.9545,0.9551,0.9558,0.9563,0.9568,0.9574,0.9575,0.9578,0.9582,0.9582,0.9583,0.9588,0.958,0.9569,0.9568,0.9584,0.9584,0.9584,0,0.9477,0.9488,0.9493,0.9497,0.9511,0.9512,0.9518,0.9527,0.9531,0.9539,0.9541,0.9549,0.9553,0.9558,0.9567,0.957,0.9572,0.9578,0.9576,0.9576,0.9575,0.9575,0.9564,0.9578,0.9578,0.9578,0.9578,0,0.947,0.9472,0.9487,0.949,0.9493,0.9504,0.9507,0.9513,0.9521,0.9525,0.9535,0.9538,0.955,0.9555,0.9562,0.9566,0.9568,0.9572,0.9573,0.957,0.957,0.9572,0.9572,0.9578,0.9578,0.9578,0.9578,0,0.9456,0.9467,0.9472,0.9485,0.9488,0.949,0.9501,0.9503,0.9511,0.9516,0.9517,0.9529,0.9535,0.9545,0.9554,0.9559,0.9561,0.9564,0.9558,0.9559,0.9555,0.9555,0.9545,0.9544,0.956,0.9559,0.9559,0,0.9451,0.9453,0.9466,0.947,0.9475,0.9481,0.9485,0.9496,0.95,0.951,0.9512,0.9519,0.9525,0.9534,0.9543,0.9549,0.9553,0.9549,0.9554,0.955,0.9552,0.9551,0.9551,0.9547,0.9547,0.9547,0.9547,0,0.9439,0.9444,0.9451,0.9459,0.9464,0.947,0.9477,0.948,0.9492,0.9496,0.9503,0.9507,0.9516,0.9523,0.9531,0.9537,0.9543,0.9545,0.9545,0.9541,0.9537,0.9539,0.9554,0.9545,0.9545,0.9545,0.9546,0.9546,0.9429,0.9432,0.9441,0.9448,0.9454,0.9461,0.9464,0.9472,0.9478,0.9486,0.9492,0.9498,0.9507,0.9518,0.9524,0.9528,0.9531,0.9531,0.9531,0.953,0.9529,0.9537,0.953,0.953,0.953,0.953,0.953,0,0.9418,0.9425,0.9431,0.944,0.9445,0.9452,0.946,0.9464,0.9469,0.9477,0.9482,0.949,0.9496,0.9506,0.9513,0.9514,0.9517,0.9516,0.9515,0.9516,0.9526,0.9525,0.9513,0.9513,0.9513,0.9513,0.9513,0.9513,0.9412,0.9417,0.9423,0.943,0.9437,0.9443,0.9447,0.9453,0.9459,0.9467,0.9472,0.9478,0.9487,0.9494,0.95,0.9503,0.9505,0.9502,0.9505,0.9514,0.9516,0.9517,0.9516,0.9502,0.9502,0.9495,0.9495,0.9495]},{"header":{"parameterUnit":"m.s-1","parameterCategory":1,"la1":30.2991,"la2":30.254,"lo1":-89.0895,"lo2":-89.0444,"dy":0.0017,"dx":0.0017,"nx":28,"ny":28,"refTime":"2025-07-04T09:00:00:Z","depth":0,"parameterNumber":3,"parameterNumberName":"V-component_of_WINDS"},"data":[0,0,0,0,0,0,0,0,0,0,0,0,0,0,0,0,0,0,0,0,0,0,0,0,0,0,0,0,0,0,0,0,0,0,0,0,0,0,0,0,0,0,0,0,0,0,0,0,0,0,0,0,0,0,0,0,0,0,2.2305,2.2305,0,2.2351,2.2351,2.2352,2.2357,2.2357,2.2356,2.2356,2.2399,2.24,2.2402,0,0,0,0,0,0,0,0,0,0,0,0,0,2.2215,2.2217,2.2305,2.2305,2.2306,2.2351,2.2352,2.2352,2.2357,2.2357,2.2356,2.2356,2.2398,2.24,2.2402,0,0,0,0,0,0,0,0,0,0,0,0,0,2.2257,2.2217,2.2305,2.2314,2.2315,2.2351,2.2352,2.2352,2.2357,2.2357,2.2356,2.2355,2.2398,2.24,2.2402,2.2431,0,0,2.241,2.2411,0,0,0,0,0,0,0,0,2.2255,2.226,2.2312,2.2313,2.2315,2.2348,2.2336,2.2378,2.2357,2.2341,2.2356,2.2355,2.2382,2.2386,2.2396,2.2433,2.2434,2.241,2.2411,2.2412,2.2413,0,0,0,0,0,0,0,2.2252,2.2258,2.2323,2.2313,2.2314,2.2314,2.2319,2.2344,2.2365,2.2343,2.2343,2.2349,2.2383,2.2394,2.2397,2.2435,2.241,2.2412,2.2413,2.2414,2.2496,2.2497,0,0,0,0,0,0,2.2248,2.2256,2.2321,2.2324,2.2283,2.2316,2.2322,2.2338,2.2365,2.2368,2.2349,2.2349,2.239,2.2394,2.2398,2.2433,2.2412,2.2414,2.2416,2.2495,2.2496,2.2497,0,0,0,0,0,0,2.2246,2.2254,2.2319,2.229,2.2299,2.2318,2.2336,2.2339,2.235,2.237,2.2373,2.2357,2.2389,2.2395,2.2423,2.2435,2.2416,2.2418,2.2494,2.2496,2.2497,2.2502,0,0,0,0,0,0,2.2243,2.2253,2.2265,2.2291,2.23,2.2345,2.2337,2.234,2.2354,2.2354,2.2378,2.2381,2.2389,2.2419,2.2425,2.2437,2.242,2.2494,2.2495,2.2496,2.2501,2.2504,2.2506,0,0,0,0,0,2.224,2.2264,2.2266,2.2274,2.2316,2.2345,2.2351,2.2361,2.2355,2.2367,2.2379,2.238,2.2432,2.2422,2.2429,2.2442,2.2493,2.2495,2.2496,2.25,2.2503,2.2506,0,0,0,0,0,0,2.2239,2.2268,2.227,2.2303,2.2322,2.2346,2.2361,2.2364,2.2384,2.2383,2.2393,2.2399,2.2426,2.2436,2.2424,2.247,2.2462,2.2465,2.2462,2.2465,2.2467,2.2465,2.2421,0,0,0,0,0,2.2242,2.2265,2.2289,2.2316,2.2325,2.2342,2.2355,2.2361,2.238,2.2388,2.2402,2.242,2.244,2.2453,2.2473,2.2502,2.2507,2.2515,2.2517,2.2518,2.2521,2.2537,2.254,2.2503,2.2503,2.2503,0,0,2.225,2.2269,2.2282,2.2316,2.2331,2.2353,2.2348,2.2372,2.2387,2.2391,2.2419,2.2429,2.2449,2.2478,2.2491,2.2488,2.2532,2.2521,2.2522,2.2524,2.2539,2.2543,2.2546,2.2504,2.2504,2.2504,0,0,2.2275,2.2292,2.2316,2.2332,2.2355,2.2366,2.2371,2.2395,2.2403,2.2431,2.2434,2.2452,2.2486,2.25,2.2512,2.2541,2.2542,2.2547,2.2558,2.2574,2.2577,2.2579,2.259,2.2593,2.2549,2.2549,2.2549,0,2.2282,2.2316,2.2328,2.2352,2.2366,2.2371,2.2394,2.2408,2.2436,2.2445,2.2441,2.2484,2.2498,2.2529,2.2536,2.2546,2.2552,2.2545,2.2576,2.2578,2.2581,2.2591,2.2595,2.255,2.255,2.255,2.255,0,2.2323,2.2346,2.2363,2.2391,2.2407,2.243,2.2444,2.2458,2.2462,2.2473,2.25,2.2517,2.254,2.2547,2.2552,2.2579,2.2576,2.2574,2.2566,2.2585,2.2594,2.2598,2.255,2.255,2.255,2.255,0,0,2.235,2.2384,2.239,2.2402,2.2428,2.2445,2.2468,2.2492,2.2503,2.2522,2.254,2.2569,2.2566,2.258,2.2585,2.2598,2.262,2.2594,2.2594,2.2598,2.2651,2.2653,2.2658,2.262,2.2621,2.2622,2.2649,0,2.2378,2.2421,2.2431,2.2467,2.2488,2.2492,2.2512,2.2529,2.2539,2.2557,2.2567,2.2587,2.2582,2.259,2.2603,2.2615,2.2631,2.2613,2.2637,2.2638,2.2633,2.2663,2.2666,2.2691,2.2653,2.2654,2.2654,0,2.2417,2.2438,2.2476,2.2499,2.2508,2.2526,2.2547,2.2565,2.2583,2.2589,2.2604,2.2608,2.263,2.262,2.265,2.2637,2.2647,2.2654,2.2655,2.2659,2.2648,2.2667,2.2699,2.2703,2.266,2.266,2.2659,0,2.2433,2.2471,2.2498,2.2509,2.2535,2.2547,2.2559,2.2576,2.259,2.2608,2.2616,2.2636,2.2647,2.2662,2.2671,2.2663,2.27,2.2691,2.2705,2.2705,2.2713,2.2713,2.2748,2.2719,2.2719,2.2718,2.2718,0,2.2465,2.2488,2.2506,2.2523,2.2548,2.2559,2.2583,2.2594,2.261,2.2628,2.2632,2.2648,2.2658,2.2676,2.2682,2.2706,2.271,2.2715,2.2717,2.2716,2.2715,2.2723,2.2722,2.272,2.2719,2.2719,2.2719,0,2.2487,2.2501,2.2531,2.2553,2.2559,2.2577,2.2596,2.2611,2.2621,2.2643,2.2649,2.2664,2.2684,2.2694,2.2719,2.2724,2.275,2.275,2.2745,2.2746,2.2759,2.2758,2.2802,2.2808,2.2774,2.2774,2.2774,0,2.2507,2.2525,2.2549,2.2562,2.2574,2.2595,2.2609,2.2619,2.2633,2.2654,2.2667,2.2688,2.2706,2.2738,2.275,2.2769,2.277,2.2784,2.2773,2.277,2.277,2.2769,2.2771,2.2786,2.2786,2.2786,2.2787,0,2.254,2.2545,2.2566,2.2588,2.2604,2.2622,2.2639,2.2649,2.2662,2.2677,2.2699,2.2712,2.2738,2.2759,2.2778,2.2788,2.2789,2.279,2.2794,2.2793,2.2789,2.2792,2.2751,2.2789,2.2789,2.2789,2.2788,2.2788,2.2562,2.2578,2.2598,2.262,2.2634,2.265,2.2666,2.2677,2.2696,2.2719,2.2723,2.2746,2.2762,2.2789,2.28,2.2817,2.2814,2.282,2.2821,2.2823,2.2824,2.2786,2.282,2.282,2.282,2.282,2.282,0,2.2595,2.2608,2.2628,2.2653,2.267,2.267,2.2689,2.2703,2.2723,2.2739,2.2756,2.2781,2.28,2.2814,2.2833,2.2844,2.2845,2.2849,2.2849,2.2851,2.2825,2.282,2.2848,2.2848,2.2848,2.2848,2.2848,2.2848,2.2615,2.2642,2.2649,2.2683,2.2695,2.2719,2.2729,2.2743,2.2756,2.2784,2.2801,2.2809,2.2824,2.2844,2.2862,2.2865,2.2872,2.2876,2.2879,2.2855,2.2852,2.285,2.2845,2.2877,2.2877,2.2903,2.2903,2.2903]}]]